User: anonymous   Login
Location: ????? ????
(37.9717°N, 23.4051°E)
Time: 22:51:36
(UTC+00:00)
Language:

Okean O Rocket - Orbit

View from above orbital plane
View from above orbital plane
View from above satellite
View from above satellite

Ground track
Ground track

The orbit data is extracted from the following two-line orbital elements,

1 25861U 99039B   24170.58193900  .00000833  00000-0  11679-3 0  9992
2 25861  98.0882 216.5595 0016266 131.4544 228.8068 14.80122860343742
Epoch (UTC): 18 June 2024 13:57:59
Eccentricity: 0.0016266
inclination: 98.0882°
perigee height: 617 km
apogee height: 640 km
right ascension of ascending node: 216.5595°
argument of perigee: 131.4544°
revolutions per day: 14.80122860
mean anomaly at epoch: 228.8068°
orbit number at epoch: 34374

The dashed part of the orbit path shows where the satellite is in the earth's shadow,  

DLR